Schneifelwetter: Wetterstation Hallschlag, 537 m . NN
Wetterdaten: Sonntag, 26.12.2010
Datum Zeit Temp. A. Feuchte A. Luftdruck Regen Wind Richtung Richtung Sonnenschein Helligkeit T Regen Taupunkt Windchill
26.12.2010 00:00 -11,3 C 94 % 1021 hPa 0,0 l/m 0,0 km/h (0 Bft) N-NO 20 0 min 0 lux 0,00 min -12,1 C -11,3 C
26.12.2010 00:15 -11,4 C 94 % 1021 hPa 0,0 l/m 0,0 km/h (0 Bft) N-NO 20 0 min 0 lux 0,00 min -12,2 C -11,4 C
26.12.2010 00:30 -11,2 C 94 % 1021 hPa 0,0 l/m 0,0 km/h (0 Bft) N-NO 20 0 min 0 lux 0,00 min -12,0 C -11,2 C
26.12.2010 00:45 -10,8 C 95 % 1021 hPa 0,0 l/m 0,0 km/h (0 Bft) N-NO 20 0 min 0 lux 0,00 min -11,4 C -10,8 C
26.12.2010 01:00 -10,6 C 95 % 1021 hPa 0,0 l/m 0,0 km/h (0 Bft) N-NO 20 0 min 0 lux 0,00 min -11,2 C -10,6 C
26.12.2010 01:15 -10,4 C 95 % 1021 hPa 0,0 l/m 0,0 km/h (0 Bft) N-NO 20 0 min 0 lux 0,00 min -11,0 C -10,4 C
26.12.2010 01:30 -10,4 C 95 % 1021 hPa 0,0 l/m 0,0 km/h (0 Bft) N-NO 20 0 min 0 lux 0,00 min -11,0 C -10,4 C
26.12.2010 01:45 -10,4 C 95 % 1021 hPa 0,0 l/m 0,0 km/h (0 Bft) N-NO 20 0 min 0 lux 0,00 min -11,0 C -10,4 C
26.12.2010 02:00 -10,2 C 95 % 1021 hPa 0,0 l/m 0,0 km/h (0 Bft) N-NO 20 0 min 0 lux 0,00 min -10,8 C -10,2 C
26.12.2010 02:15 -10,2 C 95 % 1021 hPa 0,0 l/m 0,0 km/h (0 Bft) N-NO 20 0 min 0 lux 0,00 min -10,8 C -10,2 C
26.12.2010 02:30 -10,1 C 95 % 1021 hPa 0,0 l/m 0,0 km/h (0 Bft) N-NO 20 0 min 0 lux 0,00 min -10,7 C -10,1 C
26.12.2010 02:45 -9,6 C 96 % 1021 hPa 0,0 l/m 0,0 km/h (0 Bft) N-NO 20 0 min 0 lux 0,00 min -10,1 C -9,6 C
26.12.2010 03:00 -9,2 C 96 % 1021 hPa 0,0 l/m 0,0 km/h (0 Bft) N-NO 20 0 min 0 lux 0,00 min -9,7 C -9,2 C
26.12.2010 03:15 -9,0 C 96 % 1021 hPa 0,0 l/m 0,0 km/h (0 Bft) N-NO 20 0 min 0 lux 0,00 min -9,5 C -9,0 C
26.12.2010 03:30 -8,9 C 96 % 1021 hPa 0,0 l/m 0,0 km/h (0 Bft) N-NO 20 0 min 0 lux 0,00 min -9,4 C -8,9 C
26.12.2010 03:45 -8,7 C 96 % 1021 hPa 0,0 l/m 0,0 km/h (0 Bft) N-NO 20 0 min 0 lux 0,00 min -9,2 C -8,7 C
26.12.2010 04:00 -8,5 C 96 % 1021 hPa 0,0 l/m 0,0 km/h (0 Bft) N-NO 20 0 min 0 lux 0,00 min -9,0 C -8,5 C
26.12.2010 04:15 -8,2 C 96 % 1021 hPa 0,0 l/m 0,0 km/h (0 Bft) N-NO 20 0 min 0 lux 0,00 min -8,7 C -8,2 C
26.12.2010 04:30 -7,9 C 96 % 1021 hPa 0,0 l/m 0,0 km/h (0 Bft) N-NO 20 0 min 0 lux 0,00 min -8,4 C -7,9 C
26.12.2010 04:45 -7,7 C 96 % 1021 hPa 0,0 l/m 0,0 km/h (0 Bft) N-NO 20 0 min 0 lux 0,00 min -8,2 C -7,7 C
26.12.2010 05:00 -7,6 C 96 % 1021 hPa 0,0 l/m 0,0 km/h (0 Bft) N-NO 20 0 min 0 lux 0,00 min -8,1 C -7,6 C
26.12.2010 05:15 -7,6 C 96 % 1021 hPa 0,0 l/m 0,0 km/h (0 Bft) N-NO 20 0 min 0 lux 0,00 min -8,1 C -7,6 C
26.12.2010 05:30 -7,8 C 96 % 1021 hPa 0,0 l/m 0,0 km/h (0 Bft) N-NO 20 0 min 0 lux 0,00 min -8,3 C -7,8 C
26.12.2010 05:45 -7,9 C 96 % 1021 hPa 0,0 l/m 0,0 km/h (0 Bft) N-NO 20 0 min 0 lux 0,00 min -8,4 C -7,9 C
26.12.2010 06:00 -8,1 C 96 % 1021 hPa 0,0 l/m 0,0 km/h (0 Bft) N-NO 20 0 min 0 lux 0,00 min -8,6 C -8,1 C
26.12.2010 06:15 -8,2 C 96 % 1021 hPa 0,0 l/m 0,0 km/h (0 Bft) N-NO 20 0 min 0 lux 0,00 min -8,7 C -8,2 C
26.12.2010 06:30 -8,1 C 97 % 1021 hPa 0,0 l/m 0,0 km/h (0 Bft) N-NO 20 0 min 0 lux 0,00 min -8,5 C -8,1 C
26.12.2010 06:45 -7,9 C 97 % 1021 hPa 0,3 l/m 0,0 km/h (0 Bft) N-NO 20 0 min 0 lux 15,00 min -8,3 C -7,9 C
26.12.2010 07:00 -7,8 C 97 % 1021 hPa 0,0 l/m 0,0 km/h (0 Bft) N-NO 20 0 min 0 lux 0,00 min -8,2 C -7,8 C
26.12.2010 07:15 -7,6 C 97 % 1021 hPa 0,0 l/m 0,0 km/h (0 Bft) N-NO 20 0 min 0 lux 0,00 min -8,0 C -7,6 C
26.12.2010 07:30 -7,3 C 97 % 1021 hPa 0,0 l/m 0,0 km/h (0 Bft) N-NO 20 0 min 0 lux 0,00 min -7,7 C -7,3 C
26.12.2010 07:45 -7,2 C 97 % 1021 hPa 0,0 l/m 0,0 km/h (0 Bft) N-NO 20 0 min 0 lux 0,00 min -7,6 C -7,2 C
26.12.2010 08:00 -7,2 C 97 % 1021 hPa 0,0 l/m 0,0 km/h (0 Bft) N-NO 20 0 min 0 lux 0,00 min -7,6 C -7,2 C
26.12.2010 08:15 -7,1 C 97 % 1021 hPa 0,0 l/m 0,0 km/h (0 Bft) N-NO 20 0 min 41 lux 0,00 min -7,5 C -7,1 C
26.12.2010 08:30 -6,9 C 97 % 1021 hPa 0,0 l/m 0,0 km/h (0 Bft) N-NO 20 0 min 225 lux 0,00 min -7,3 C -6,9 C
26.12.2010 08:45 -6,9 C 97 % 1021 hPa 0,0 l/m 0,0 km/h (0 Bft) N-NO 20 0 min 568 lux 0,00 min -7,3 C -6,9 C
26.12.2010 09:00 -6,7 C 97 % 1021 hPa 0,0 l/m 0,0 km/h (0 Bft) N-NO 20 0 min 2,15 klux 0,00 min -7,1 C -6,7 C
26.12.2010 09:15 -6,6 C 97 % 1022 hPa 0,0 l/m 0,0 km/h (0 Bft) N-NO 20 0 min 2,95 klux 0,00 min -7,0 C -6,6 C
26.12.2010 09:30 -6,3 C 98 % 1021 hPa 0,0 l/m 0,0 km/h (0 Bft) N-NO 20 0 min 3,89 klux 0,00 min -6,6 C -6,3 C
26.12.2010 09:45 -6,2 C 98 % 1021 hPa 0,0 l/m 0,0 km/h (0 Bft) N-NO 20 0 min 4,67 klux 0,00 min -6,5 C -6,2 C
26.12.2010 10:00 -5,9 C 97 % 1021 hPa 0,0 l/m 0,0 km/h (0 Bft) N-NO 20 0 min 12,7 klux 0,00 min -6,3 C -5,9 C
26.12.2010 10:15 -5,7 C 97 % 1021 hPa 0,0 l/m 0,0 km/h (0 Bft) N-NO 20 0 min 11,5 klux 0,00 min -6,1 C -5,7 C
26.12.2010 10:30 -5,5 C 97 % 1021 hPa 0,0 l/m 0,0 km/h (0 Bft) N-NO 20 0 min 19,2 klux 0,00 min -5,9 C -5,5 C
26.12.2010 10:45 -5,4 C 97 % 1022 hPa 0,0 l/m 0,0 km/h (0 Bft) N-NO 20 0 min 14,4 klux 0,00 min -5,8 C -5,4 C
26.12.2010 11:00 -4,6 C 96 % 1022 hPa 0,0 l/m 0,0 km/h (0 Bft) N-NO 20 0 min 20,7 klux 0,00 min -5,1 C -4,6 C
26.12.2010 11:15 -4,2 C 96 % 1022 hPa 0,0 l/m 0,0 km/h (0 Bft) N-NO 20 0 min 19,7 klux 0,00 min -4,7 C -4,2 C
26.12.2010 11:30 -4,2 C 96 % 1022 hPa 0,0 l/m 0,0 km/h (0 Bft) N-NO 20 0 min 17,5 klux 0,00 min -4,7 C -4,2 C
26.12.2010 11:45 -3,9 C 95 % 1021 hPa 0,0 l/m 0,0 km/h (0 Bft) N-NO 20 0 min 35,8 klux 0,00 min -4,6 C -3,9 C
26.12.2010 12:00 -3,0 C 95 % 1021 hPa 0,0 l/m 0,0 km/h (0 Bft) N-NO 20 0 min 33,7 klux 0,00 min -3,7 C -3,0 C
26.12.2010 12:15 -2,8 C 95 % 1021 hPa 0,0 l/m 0,0 km/h (0 Bft) N-NO 20 0 min 34,2 klux 0,00 min -3,5 C -2,8 C
26.12.2010 12:29 -1,8 C 95 % 1021 hPa 0,0 l/m 0,0 km/h (0 Bft) N-NO 20 0 min 33,1 klux 0,00 min -2,5 C -1,8 C
26.12.2010 12:45 -1,7 C 94 % 1021 hPa 0,0 l/m 0,0 km/h (0 Bft) N-NO 20 0 min 29,5 klux 0,00 min -2,5 C -1,7 C
26.12.2010 13:00 -1,4 C 94 % 1021 hPa 0,3 l/m 0,0 km/h (0 Bft) N-NO 20 0 min 36,4 klux 15,00 min -2,2 C -1,4 C
26.12.2010 13:15 -1,8 C 93 % 1021 hPa 0,0 l/m 0,0 km/h (0 Bft) N-NO 20 0 min 17,7 klux 0,00 min -2,8 C -1,8 C
26.12.2010 13:30 -2,0 C 94 % 1021 hPa 0,0 l/m 0,0 km/h (0 Bft) N-NO 20 0 min 14,9 klux 0,00 min -2,8 C -2,0 C
26.12.2010 13:45 -2,0 C 93 % 1021 hPa 0,3 l/m 0,0 km/h (0 Bft) N-NO 20 0 min 14,6 klux 15,00 min -3,0 C -2,0 C
26.12.2010 14:00 -1,8 C 93 % 1021 hPa 0,0 l/m 0,0 km/h (0 Bft) N-NO 20 0 min 15,8 klux 0,00 min -2,8 C -1,8 C
26.12.2010 14:15 -2,1 C 93 % 1021 hPa 0,0 l/m 0,0 km/h (0 Bft) N-NO 20 0 min 12,7 klux 0,00 min -3,1 C -2,1 C
26.12.2010 14:30 -2,2 C 93 % 1021 hPa 0,0 l/m 0,0 km/h (0 Bft) N-NO 20 0 min 12,0 klux 0,00 min -3,2 C -2,2 C
26.12.2010 14:45 -2,1 C 94 % 1021 hPa 0,0 l/m 0,0 km/h (0 Bft) N-NO 20 0 min 16,3 klux 0,00 min -2,9 C -2,1 C
26.12.2010 15:00 -2,1 C 93 % 1021 hPa 0,0 l/m 0,0 km/h (0 Bft) N-NO 20 0 min 10,8 klux 0,00 min -3,1 C -2,1 C
26.12.2010 15:15 -2,3 C 93 % 1021 hPa 0,0 l/m 0,0 km/h (0 Bft) N-NO 20 0 min 8,80 klux 0,00 min -3,3 C -2,3 C
26.12.2010 15:30 -2,3 C 93 % 1021 hPa 0,0 l/m 0,0 km/h (0 Bft) N-NO 20 0 min 8,08 klux 0,00 min -3,3 C -2,3 C
26.12.2010 15:45 -2,4 C 93 % 1021 hPa 0,0 l/m 0,0 km/h (0 Bft) N-NO 20 0 min 5,80 klux 0,00 min -3,4 C -2,4 C
26.12.2010 16:00 -2,7 C 93 % 1021 hPa 0,0 l/m 0,0 km/h (0 Bft) N-NO 20 0 min 4,05 klux 0,00 min -3,7 C -2,7 C
26.12.2010 16:15 -2,8 C 93 % 1021 hPa 0,0 l/m 0,0 km/h (0 Bft) N-NO 20 0 min 2,50 klux 0,00 min -3,8 C -2,8 C
26.12.2010 16:30 -2,9 C 94 % 1021 hPa 0,0 l/m 0,0 km/h (0 Bft) N-NO 20 0 min 1,62 klux 0,00 min -3,7 C -2,9 C
26.12.2010 16:45 -3,0 C 94 % 1021 hPa 0,0 l/m 0,0 km/h (0 Bft) N-NO 20 0 min 431 lux 0,00 min -3,8 C -3,0 C
26.12.2010 17:00 -3,1 C 94 % 1021 hPa 0,0 l/m 0,0 km/h (0 Bft) N-NO 20 0 min 168 lux 0,00 min -3,9 C -3,1 C
26.12.2010 17:15 -3,3 C 94 % 1021 hPa 0,0 l/m 0,0 km/h (0 Bft) N-NO 20 0 min 30 lux 0,00 min -4,1 C -3,3 C
26.12.2010 17:29 -3,6 C 94 % 1021 hPa 0,0 l/m 0,0 km/h (0 Bft) N-NO 20 0 min 4 lux 0,00 min -4,4 C -3,6 C
26.12.2010 17:45 -3,8 C 94 % 1021 hPa 0,0 l/m 0,0 km/h (0 Bft) N-NO 20 0 min 0 lux 0,00 min -4,6 C -3,8 C
26.12.2010 18:00 -3,9 C 95 % 1021 hPa 0,0 l/m 0,0 km/h (0 Bft) N-NO 20 0 min 0 lux 0,00 min -4,6 C -3,9 C
26.12.2010 18:15 -4,0 C 95 % 1021 hPa 0,0 l/m 0,0 km/h (0 Bft) N-NO 20 0 min 0 lux 0,00 min -4,7 C -4,0 C
26.12.2010 18:30 -4,2 C 95 % 1021 hPa 0,0 l/m 0,0 km/h (0 Bft) N-NO 20 0 min 0 lux 0,00 min -4,9 C -4,2 C
26.12.2010 18:45 -4,0 C 95 % 1021 hPa 0,0 l/m 0,0 km/h (0 Bft) N-NO 20 0 min 0 lux 0,00 min -4,7 C -4,0 C
26.12.2010 19:00 -4,1 C 95 % 1021 hPa 0,0 l/m 0,0 km/h (0 Bft) N-NO 20 0 min 0 lux 0,00 min -4,8 C -4,1 C
26.12.2010 19:15 -4,0 C 96 % 1021 hPa 0,0 l/m 0,0 km/h (0 Bft) N-NO 20 0 min 0 lux 0,00 min -4,5 C -4,0 C
26.12.2010 19:30 -3,8 C 96 % 1021 hPa 0,0 l/m 0,0 km/h (0 Bft) N-NO 20 0 min 0 lux 0,00 min -4,3 C -3,8 C
26.12.2010 19:45 -3,8 C 96 % 1021 hPa 0,0 l/m 0,0 km/h (0 Bft) N-NO 20 0 min 0 lux 0,00 min -4,3 C -3,8 C
26.12.2010 20:00 -3,9 C 96 % 1021 hPa 0,0 l/m 0,0 km/h (0 Bft) N-NO 20 0 min 0 lux 0,00 min -4,4 C -3,9 C
26.12.2010 20:15 -3,8 C 96 % 1021 hPa 0,0 l/m 0,0 km/h (0 Bft) N-NO 20 0 min 0 lux 0,00 min -4,3 C -3,8 C
26.12.2010 20:30 -3,8 C 97 % 1021 hPa 0,0 l/m 0,0 km/h (0 Bft) N-NO 20 0 min 0 lux 0,00 min -4,2 C -3,8 C
26.12.2010 20:45 -3,7 C 97 % 1021 hPa 0,0 l/m 0,0 km/h (0 Bft) N-NO 20 0 min 0 lux 0,00 min -4,1 C -3,7 C
26.12.2010 21:00 -3,7 C 97 % 1021 hPa 0,0 l/m 0,0 km/h (0 Bft) N-NO 20 0 min 0 lux 0,00 min -4,1 C -3,7 C
26.12.2010 21:15 -3,6 C 97 % 1021 hPa 0,0 l/m 0,0 km/h (0 Bft) N-NO 20 0 min 0 lux 0,00 min -4,0 C -3,6 C
26.12.2010 21:30 -3,5 C 97 % 1021 hPa 0,0 l/m 0,0 km/h (0 Bft) N-NO 20 0 min 0 lux 0,00 min -3,9 C -3,5 C
26.12.2010 21:45 -3,4 C 97 % 1022 hPa 0,0 l/m 0,0 km/h (0 Bft) N-NO 20 0 min 0 lux 0,00 min -3,8 C -3,4 C
26.12.2010 22:00 -3,4 C 97 % 1021 hPa 0,0 l/m 0,0 km/h (0 Bft) N-NO 20 0 min 0 lux 0,00 min -3,8 C -3,4 C
26.12.2010 22:15 -3,4 C 97 % 1021 hPa 0,0 l/m 0,0 km/h (0 Bft) N-NO 20 0 min 0 lux 0,00 min -3,8 C -3,4 C
26.12.2010 22:29 -3,4 C 97 % 1021 hPa 0,0 l/m 0,0 km/h (0 Bft) N-NO 20 0 min 0 lux 0,00 min -3,8 C -3,4 C
26.12.2010 22:45 -3,4 C 97 % 1021 hPa 0,0 l/m 0,0 km/h (0 Bft) N-NO 20 0 min 0 lux 0,00 min -3,8 C -3,4 C
26.12.2010 23:00 -3,4 C 98 % 1021 hPa 0,0 l/m 0,0 km/h (0 Bft) N-NO 20 0 min 0 lux 0,00 min -3,7 C -3,4 C
26.12.2010 23:15 -3,4 C 98 % 1021 hPa 0,0 l/m 0,0 km/h (0 Bft) N-NO 20 0 min 0 lux 0,00 min -3,7 C -3,4 C
26.12.2010 23:30 -3,4 C 98 % 1021 hPa 0,0 l/m 0,0 km/h (0 Bft) N-NO 20 0 min 0 lux 0,00 min -3,7 C -3,4 C
26.12.2010 23:45 -3,4 C 98 % 1020 hPa 0,0 l/m 0,0 km/h (0 Bft) N-NO 20 0 min 0 lux 0,00 min -3,7 C -3,4 C
26.12.2010 23:54 -3,4 C 98 % 1020 hPa 0,0 l/m 0,0 km/h (0 Bft) N-NO 20 0 min 0 lux 0,00 min -3,7 C -3,4 C
_ Min-Zeit 00:15 13:15 23:45 - 00:00 - - - - - 00:15 00:15
Minimum _ -11,4 C 93 % 1020 hPa - 0,0 km/h (0 Bft) - - - - - -12,2 C -11,4 C
_ Max-Zeit 13:00 09:30 09:15 06:45 00:00 - - 00:00 13:00 06:45 13:00 13:00
Maximum _ -1,4 C 98 % 1022 hPa 0,3 l/m 0,0 km/h
N-NO (0 Bft)
- - 0 min 36,4 klux 15,00 min -2,2 C -1,4 C
Durchschnitt _ -5,5 C 96 % 1021 hPa #0,9 l/m 0,0 km/h (0 Bft) - - - #0 min. 4,94 klux #45 min. -6,1 C -5,5 C